Stations météo

réclame
Mon MeteoGroup
Montpellier, France (7643): Température de l'air & dewpoint: 14.06.2018 07:00:00 - 20.06.2018 07:00:00 (CEST)Montpellier, France (7643): Température de l'air 5cm: 14.06.2018 07:00:00 - 20.06.2018 07:00:00 (CEST)Montpellier, France (7643): Température de l'air -20cm & Température de l'air -100cm: 14.06.2018 07:00:00 - 20.06.2018 07:00:00 (CEST)Montpellier, France (7643): Vitesse du vent & gusts: 14.06.2018 07:00:00 - 20.06.2018 07:00:00 (CEST)Montpellier, France (7643): Direction du vent: 14.06.2018 07:00:00 - 20.06.2018 07:00:00 (CEST)Montpellier, France (7643): reduced air pressure: 14.06.2018 07:00:00 - 20.06.2018 07:00:00 (CEST)Montpellier, France (7643): visibility: 14.06.2018 07:00:00 - 20.06.2018 07:00:00 (CEST)Montpellier, France (7643): Ensoleillement: 14.06.2018 07:00:00 - 20.06.2018 07:00:00 (CEST)Montpellier, France (7643): Quantités de précipitations: 14.06.2018 07:00:00 - 20.06.2018 07:00:00 (CEST)
Date & Time tt [°C] td [°C] tt 5cm [°C] tt -20cm [°C] tt -100cm [°C] ff [km/h] ff [knt] fx [km/h] fx [knt] dd ppp [hPa] vv [km] sd [min] rr [mm]
20.06.2018 07:00:00 20,6 16,6 15,0 24,2 20,4 4 2 7 4 NNE 1019,0 47 33 0,0
20.06.2018 06:00:00 18,4 15,6 15,0 24,4 20,4 3 2 7 4 NE 1018,8 58 0 0,0
20.06.2018 05:00:00 19,6 16,2 15,9 24,7 20,3 4 2 6 3 N 1018,5 42 0 0,0
20.06.2018 04:00:00 20,8 16,0 16,6 25,0 20,4 5 3 11 6 NW 1018,6 40 0 0,0
20.06.2018 03:00:00 22,2 17,3 16,4 25,2 20,4 6 3 7 4 W 1018,9 29 0 0,0
20.06.2018 02:00:00 21,3 17,3 17,3 25,5 20,3 4 2 10 6 NNW 1019,2 35 0 0,0
20.06.2018 01:00:00 22,5 17,0 17,4 25,8 20,3 2 1 7 4 SSW 1019,4 45 0 0,0
20.06.2018 00:00:00 23,3 18,8 18,2 26,2 20,3 5 3 9 5 S 1019,3 50 0 0,0
19.06.2018 23:00:00 22,4 19,0 19,1 26,5 20,3 6 4 12 6 ESE 1019,2 26 0 0,0
19.06.2018 22:00:00 25,0 17,0 20,5 26,7 20,2 2 1 9 5 ENE 1018,6 42 3 0,0
19.06.2018 21:00:00 27,9 16,8 24,9 26,9 20,3 8 5 16 9 W 1018,1 21 60 0,0
19.06.2018 20:00:00 28,9 17,1 30,3 26,9 20,3 10 5 17 9 SW 1018,2 54 60 0,0
19.06.2018 19:00:00 29,0 15,9 33,9 26,8 20,3 13 7 18 10 SW 1018,4 32 60 0,0
19.06.2018 18:00:00 29,7 17,5 36,4 26,4 20,2 14 7 21 12 SSW 1018,6 32 60 0,0
19.06.2018 17:00:00 29,9 17,7 36,8 26,0 20,3 13 7 17 9 S 1018,9 36 60 0,0
19.06.2018 16:00:00 31,2 16,8 37,1 25,4 20,3 10 5 18 10 E 1019,2 20 60 0,0
19.06.2018 15:00:00 30,9 15,3 37,2 24,7 20,2 14 8 24 13 E 1019,6 18 60 0,0
19.06.2018 14:00:00 30,3 15,6 35,9 24,1 20,2 14 8 35 19 NE 1019,8 20 60 0,0
19.06.2018 13:00:00 29,6 16,1 33,9 23,6 20,2 21 12 35 19 NNE 1020,1 19 60 0,0
19.06.2018 12:00:00 28,1 15,0 33,4 23,2 20,2 20 11 39 21 NNE 1020,2 16 60 0,0
19.06.2018 11:00:00 26,8 14,9 29,3 22,9 20,2 22 12 38 21 N 1020,5 8 60 0,0
19.06.2018 10:00:00 25,3 13,8 29,0 22,8 20,2 26 14 40 22 NNE 1020,8 9 60 0,0
19.06.2018 09:00:00 23,4 13,6 28,4 22,8 20,2 18 10 29 16 N 1020,8 25 60 0,0
19.06.2018 08:00:00 22,1 12,9 21,3 22,9 20,2 11 6 17 9 NW 1020,8 29 60 0,0
19.06.2018 07:00:00 20,1 13,1 12,9 23,1 20,2 11 6 16 8 NW 1020,7 32 33 0,0
19.06.2018 06:00:00 17,0 12,5 12,5 23,4 20,2 8 5 10 5 NW 1020,6 60 0 0,0
19.06.2018 05:00:00 17,2 11,5 13,0 23,6 20,2 3 2 9 5 WNW 1020,6 60 0 0,0
19.06.2018 04:00:00 19,5 13,0 13,4 23,9 20,2 6 4 12 7 NW 1020,3 60 0 0,0
19.06.2018 03:00:00 19,7 12,7 16,2 24,2 20,2 10 6 16 8 NW 1020,2 60 0 0,0
19.06.2018 02:00:00 21,0 13,4 18,2 24,4 20,2 13 7 21 11 NW 1020,2 57 0 0,0
19.06.2018 01:00:00 22,2 13,5 17,8 24,7 20,2 12 6 16 9 NW 1020,5 60 0 0,0
19.06.2018 00:00:00 22,8 13,3 19,1 25,0 20,2 9 5 16 9 NW 1020,5 60 0 0,0
18.06.2018 23:00:00 22,1 12,9 18,9 25,2 20,1 13 7 16 9 N 1020,2 60 0 0,0
18.06.2018 22:00:00 23,9 12,8 21,7 25,5 20,1 9 5 31 17 N 1019,4 24 3 0,0
18.06.2018 21:00:00 26,0 12,8 24,9 25,7 20,1 19 11 31 17 N 1018,8 42 60 0,0
18.06.2018 20:00:00 28,2 13,3 28,0 25,7 20,1 20 11 34 18 NNE 1018,3 33 60 0,0
18.06.2018 19:00:00 29,0 13,2 30,8 25,7 20,1 24 13 34 18 NNE 1017,9 19 60 0,0
18.06.2018 18:00:00 29,7 13,5 32,2 25,5 20,1 22 12 35 19 NNE 1018,1 19 60 0,0
18.06.2018 17:00:00 29,7 12,6 33,4 25,1 20,1 22 12 37 20 NNE 1018,2 18 60 0,0
18.06.2018 16:00:00 29,5 12,9 33,4 24,7 20,1 23 13 40 21 NNE 1018,3 19 60 0,0
18.06.2018 15:00:00 29,1 12,1 33,1 24,1 20,1 21 11 33 18 NNE 1018,7 21 60 0,0
18.06.2018 14:00:00 28,7 12,2 33,1 23,6 20,1 25 13 37 20 NNE 1019,0 20 60 0,0
18.06.2018 13:00:00 27,7 12,9 32,7 23,1 20,1 21 11 32 17 NNE 1019,3 24 60 0,0
18.06.2018 12:00:00 26,9 12,2 32,3 22,7 20,1 21 12 36 19 N 1019,5 24 60 0,0
18.06.2018 11:00:00 25,7 11,1 31,9 22,4 20,1 22 12 33 18 N 1019,5 26 60 0,0
18.06.2018 10:00:00 23,9 10,9 31,2 22,2 20,1 16 9 26 14 N 1020,0 16 60 0,0
18.06.2018 09:00:00 22,7 10,8 28,7 22,2 20,1 10 5 18 10 N 1020,1 19 60 0,0
18.06.2018 08:00:00 21,6 11,3 22,2 22,3 20,1 10 6 14 8 NW 1019,9 16 60 0,0
18.06.2018 07:00:00 19,4 10,9 15,2 22,5 20,1 8 4 19 10 NNW 1019,9 15 33 0,0
18.06.2018 06:00:00 19,0 10,0 14,7 22,7 20,1 13 7 25 14 NW 1019,7 60 0 0,0
18.06.2018 05:00:00 19,6 10,3 14,4 22,9 20,1 8 5 18 10 WNW 1019,5 40 0 0,0
18.06.2018 04:00:00 19,3 10,6 15,0 23,1 20,0 8 5 19 10 NNW 1019,7 60 0 0,0
18.06.2018 03:00:00 19,9 10,3 16,3 23,4 20,0 11 6 18 10 NW 1019,6 60 0 0,0
18.06.2018 02:00:00 20,6 10,1 17,9 23,6 20,0 14 8 31 17 WNW 1019,9 60 0 0,0
18.06.2018 01:00:00 21,2 9,7 19,0 23,8 20,0 18 10 29 15 WNW 1019,9 60 0 0,0
18.06.2018 00:00:00 21,7 9,2 19,5 24,1 20,0 22 12 34 18 WNW 1020,0 60 0 0,0
17.06.2018 23:00:00 22,2 9,0 20,2 24,4 20,0 22 12 41 22 WNW 1019,5 60 0 0,0
17.06.2018 22:00:00 23,0 9,0 21,3 24,7 20,0 28 15 45 24 NW 1018,7 60 2 0,0
17.06.2018 21:00:00 24,4 9,5 23,0 24,9 20,0 32 17 45 25 NW 1017,9 32 60 0,0
17.06.2018 20:00:00 26,0 10,6 26,0 24,9 20,0 32 17 53 28 WNW 1017,4 28 60 0,0
17.06.2018 19:00:00 26,6 11,5 26,7 25,0 20,0 35 19 47 26 WNW 1016,9 31 49 0,0
17.06.2018 18:00:00 26,1 12,2 26,7 24,9 20,0 29 16 45 25 NW 1017,0 31 15 0,0
17.06.2018 17:00:00 27,3 12,1 27,7 24,8 20,0 33 18 47 26 NW 1017,0 24 17 0,0
17.06.2018 16:00:00 26,5 12,2 28,1 24,6 20,0 31 17 46 25 WNW 1017,2 22 17 0,0
17.06.2018 15:00:00 27,6 12,4 31,2 24,2 20,0 31 17 47 25 WNW 1016,9 21 46 0,0
17.06.2018 14:00:00 27,9 12,7 33,9 23,6 19,9 19 10 35 19 WNW 1017,2 22 60 0,0
17.06.2018 13:00:00 27,5 11,9 32,8 23,2 19,9 19 10 35 19 NNW 1017,4 20 47 0,0
17.06.2018 12:00:00 27,0 11,5 33,8 22,8 19,9 18 10 31 17 NNW 1017,7 21 60 0,0
17.06.2018 11:00:00 25,6 11,7 31,5 22,5 19,9 22 12 37 20 WNW 1017,9 16 60 0,0
17.06.2018 10:00:00 24,5 11,8 28,2 22,4 19,9 24 13 37 20 NW 1017,9 11 60 0,0
17.06.2018 09:00:00 23,3 11,4 25,0 22,5 19,9 29 15 41 22 NW 1017,7 11 60 0,0
17.06.2018 08:00:00 21,9 11,6 21,8 22,6 19,9 27 15 39 21 NW 1017,5 9 60 0,0
17.06.2018 07:00:00 20,7 11,6 18,7 22,8 19,9 22 12 36 20 WNW 1016,9 9 33 0,0
17.06.2018 06:00:00 20,2 11,7 18,4 23,0 19,9 25 14 37 20 NW 1016,5 60 0 0,0
17.06.2018 05:00:00 20,5 11,4 18,9 23,2 19,9 21 11 39 21 NW 1016,3 60 0 0,0
17.06.2018 04:00:00 20,9 11,2 19,6 23,5 19,9 27 14 41 22 NW 1016,1 60 0 0,0
17.06.2018 03:00:00 21,3 11,0 19,9 23,7 19,9 26 14 45 24 NW 1016,1 60 0 0,0
17.06.2018 02:00:00 21,8 11,2 20,5 24,0 19,9 27 15 40 22 NW 1016,0 60 0 0,0
17.06.2018 01:00:00 22,2 11,6 21,0 24,3 19,8 30 16 43 23 NW 1016,2 60 0 0,0
17.06.2018 00:00:00 23,0 12,3 21,6 24,6 19,9 30 16 42 23 NW 1016,0 60 0 0,0
16.06.2018 23:00:00 23,5 13,1 21,6 24,9 19,9 20 11 33 18 NNW 1015,5 60 0 0,0
16.06.2018 22:00:00 24,7 13,6 23,5 25,2 19,9 27 15 44 24 NW 1014,8 60 2 0,0
16.06.2018 21:00:00 26,0 13,8 25,1 25,3 19,9 26 14 46 25 NW 1013,9 50 33 0,0
16.06.2018 20:00:00 28,1 14,0 28,2 25,4 19,8 30 16 44 24 NW 1013,2 50 54 0,0
16.06.2018 19:00:00 29,3 13,9 30,4 25,4 19,9 17 9 26 14 NW 1012,7 56 53 0,0
16.06.2018 18:00:00 29,0 13,6 31,7 25,2 19,8 6 3 26 14 SW 1012,7 53 19 0,0
16.06.2018 17:00:00 27,4 15,4 32,7 24,8 19,8 13 7 21 12 SSW 1013,2 20 24 0,0
16.06.2018 16:00:00 27,9 15,2 32,3 24,4 19,8 14 8 23 12 S 1013,3 37 30 0,0
16.06.2018 15:00:00 28,2 13,3 29,8 23,8 19,8 5 3 24 13 ENE 1013,7 33 49 0,0
16.06.2018 14:00:00 28,8 13,1 33,8 23,2 19,8 14 8 29 16 NNE 1013,9 23 60 0,0
16.06.2018 13:00:00 28,4 14,2 32,4 22,8 19,8 20 11 36 20 N 1014,1 23 60 0,0
16.06.2018 12:00:00 27,1 12,7 31,1 22,4 19,8 23 13 36 19 NNE 1014,1 22 60 0,0
16.06.2018 11:00:00 26,3 13,1 30,4 22,1 19,8 23 12 43 23 NNE 1014,0 20 60 0,0
16.06.2018 10:00:00 25,7 13,5 29,6 22,0 19,8 24 13 36 19 N 1013,9 22 60 0,0
16.06.2018 09:00:00 23,6 13,5 25,1 22,0 19,8 16 9 27 14 NW 1014,0 20 60 0,0
16.06.2018 08:00:00 21,8 12,9 21,2 22,1 19,8 20 11 29 16 WNW 1014,0 26 60 0,0
16.06.2018 07:00:00 20,5 13,0 17,6 22,3 19,8 14 7 22 12 WNW 1013,4 27 33 0,0
16.06.2018 06:00:00 19,6 12,4 17,4 22,5 19,8 14 8 26 14 WNW 1013,3 59 0 0,0
16.06.2018 05:00:00 19,9 12,2 17,9 22,7 19,8 18 10 29 16 WNW 1013,3 60 0 0,0
16.06.2018 04:00:00 20,1 12,1 18,1 23,0 19,8 19 10 26 14 WNW 1013,5 60 0 0,0
16.06.2018 03:00:00 20,4 12,1 18,3 23,3 19,8 16 9 24 13 WNW 1013,7 60 0 0,0
16.06.2018 02:00:00 20,9 12,1 18,5 23,5 19,8 14 8 21 11 WNW 1013,8 60 0 0,0
16.06.2018 01:00:00 21,6 12,7 19,1 23,8 19,8 14 8 21 12 WNW 1014,0 60 0 0,0
16.06.2018 00:00:00 22,1 12,9 20,1 24,1 19,8 14 8 22 12 NW 1013,8 60 0 0,0
15.06.2018 23:00:00 23,1 13,3 21,4 24,4 19,8 18 10 27 15 NNW 1013,6 60 0 0,0
15.06.2018 22:00:00 24,4 13,0 22,1 24,6 19,8 13 7 26 14 NW 1013,2 60 2 0,0
15.06.2018 21:00:00 25,9 13,4 24,5 24,9 19,8 11 6 31 17 NNW 1012,7 60 28 0,0
15.06.2018 20:00:00 27,1 13,8 26,2 24,9 19,8 25 14 39 21 NW 1012,0 35 53 0,0
15.06.2018 19:00:00 27,9 14,5 30,4 24,8 19,8 30 16 39 21 W 1011,7 28 60 0,0
15.06.2018 18:00:00 28,6 14,1 33,7 24,5 19,8 23 13 31 17 WSW 1011,8 30 60 0,0
15.06.2018 17:00:00 27,4 14,4 35,3 24,0 19,7 18 10 36 20 SW 1012,1 29 60 0,0
15.06.2018 16:00:00 27,3 14,7 35,9 23,4 19,8 14 8 22 12 S 1012,4 20 52 0,0
15.06.2018 15:00:00 27,2 12,0 33,4 22,8 19,7 7 4 19 10 SSE 1012,7 20 57 0,0
15.06.2018 14:00:00 27,6 11,2 31,7 22,2 19,8 11 6 24 13 N 1013,0 18 55 0,0
15.06.2018 13:00:00 26,7 12,7 30,5 21,7 19,7 8 5 23 13 N 1013,3 60 45 0,0
15.06.2018 12:00:00 24,9 10,7 29,3 21,4 19,7 12 7 31 17 N 1013,6 34 42 0,0
15.06.2018 11:00:00 24,1 9,3 26,2 21,3 19,8 19 10 40 22 N 1013,8 39 22 0,0
15.06.2018 10:00:00 23,3 10,0 25,9 21,1 19,8 20 11 35 19 N 1013,8 42 27 0,0
15.06.2018 09:00:00 23,3 10,7 23,5 21,1 19,8 17 9 28 15 NW 1013,4 47 52 0,0
15.06.2018 08:00:00 20,9 11,2 17,9 21,2 19,8 10 5 15 8 NW 1013,2 20 16 0,0
15.06.2018 07:00:00 19,4 10,4 17,5 21,4 19,8 8 4 21 12 NW 1012,9 59 0 0,0
15.06.2018 06:00:00 19,5 10,2 17,5 21,6 19,8 12 6 26 14 NW 1012,9 60 0 0,0
15.06.2018 05:00:00 19,7 10,1 17,1 21,8 19,8 18 10 27 14 NW 1012,8 60 0 0,0
15.06.2018 04:00:00 20,1 9,3 17,8 22,0 19,8 18 10 25 13 NW 1013,0 60 0 0,0
15.06.2018 03:00:00 20,1 9,9 16,4 22,3 19,8 16 9 23 12 WNW 1013,2 60 0 0,0
15.06.2018 02:00:00 19,7 10,4 15,4 22,5 19,8 9 5 13 7 WNW 1013,5 60 0 0,0
15.06.2018 01:00:00 20,2 10,9 15,4 22,8 19,8 8 4 14 7 WNW 1013,7 60 0 0,0
15.06.2018 00:00:00 21,3 7,9 15,6 23,1 19,8 8 5 19 10 W 1013,9 60 0 0,0
14.06.2018 23:00:00 22,2 10,7 19,0 23,4 19,8 13 7 18 10 NNW 1013,7 60 0 0,0
14.06.2018 22:00:00 22,4 11,8 20,3 23,6 19,8 14 8 24 13 NNW 1013,0 60 0 0,0
14.06.2018 21:00:00 24,7 10,9 22,2 23,8 19,8 9 5 38 20 NW 1012,3 59 23 0,0
14.06.2018 20:00:00 26,5 11,0 26,4 24,0 19,8 22 12 38 20 NNW 1011,6 44 60 0,0
14.06.2018 19:00:00 27,4 7,8 28,5 24,0 19,7 22 12 38 20 N 1011,1 42 60 0,0
14.06.2018 18:00:00 28,6 9,8 31,0 23,9 19,8 18 10 39 21 N 1010,9 43 60 0,0
14.06.2018 17:00:00 27,9 9,7 31,2 23,7 19,8 21 11 35 19 N 1011,0 43 60 0,0
14.06.2018 16:00:00 28,2 9,9 32,5 23,4 19,8 21 12 34 18 NNE 1011,2 45 60 0,0
14.06.2018 15:00:00 26,9 10,1 30,9 22,9 19,8 13 7 27 15 NNE 1011,6 20 60 0,0
14.06.2018 14:00:00 26,0 9,8 35,6 22,1 19,8 16 9 37 20 NNE 1012,2 54 60 0,0
14.06.2018 13:00:00 25,9 8,4 34,6 21,3 19,8 19 10 33 18 N 1012,5 51 60 0,0
14.06.2018 12:00:00 24,0 8,8 32,5 20,6 19,8 22 12 36 20 NNE 1012,7 48 60 0,0
14.06.2018 11:00:00 23,3 7,8 23,4 20,2 19,8 26 14 42 23 N 1012,7 17 60 0,0
14.06.2018 10:00:00 22,0 8,1 20,5 20,0 19,8 26 14 42 23 N 1013,0 17 60 0,0
14.06.2018 09:00:00 20,8 8,1 17,0 20,0 19,8 25 14 35 19 NW 1012,7 15 60 0,0
14.06.2018 08:00:00 19,3 8,0 14,0 20,1 19,8 21 11 36 20 NW 1012,6 13 60 0,0
14.06.2018 07:00:00 17,7 7,7 13,3 20,2 19,8 21 11 39 21 NW 1012,4 14 33 0,0

tt = Température de l'air
td = dewpoint
tt 5cm = Température de l'air 5cm
tt -20cm = Température de l'air -20cm
tt -100cm = Température de l'air -100cm
ff = Vitesse du vent
fx = gusts
dd = Direction du vent
ppp = reduced air pressure
vv = visibility
sd = Ensoleillement
rr = Quantités de précipitations

stations d'obs. à proximité